User: anonymous   Login
Location: *
(17.3280°S, 114.7300°W)
Time: 13:59:42
(UTC+00:00)
Language:

SL-08 ROCKET BODY - Orbit

View from above orbital plane
View from above orbital plane
View from above satellite
View from above satellite

Ground track
Ground track

The orbit data is extracted from the following two-line orbital elements,

1 28522U 05002B   20294.89756319 +.00000109 +00000-0 +75276-4 0  9992
2 28522 082.9455 149.6042 0046159 020.1227 340.1744 13.89590718798793
Epoch (UTC): 20 October 2020 21:32:29
Eccentricity: 0.0046159
inclination: 82.9455°
perigee height: 896 km
apogee height: 964 km
right ascension of ascending node: 149.6042°
argument of perigee: 20.1227°
revolutions per day: 13.89590718
mean anomaly at epoch: 340.1744°
orbit number at epoch: 79879

The dashed part of the orbit path shows where the satellite is in the earth's shadow,  

DLR